ZIYUAN 3-2 (ZY 3-2) (41556 NORAD) Tracking and Keplerian Element Data

This shows tracking and keplerian element data for the satellite.

Feedback or suggestion? Click here.




ElementValue
Catalog41556
NameZIYUAN 3-2 (ZY 3-2)
Epoch Orbit14126
Epoch Day349.24284038
Epoch Year2018
RAAN64.5182
Inclination97.4159
Eccentricity0.0002205
Argument of Perigee107.5253
Mean Anonmoly326.5396
Mean Motion15.21381778
Decay Rate6.53E-06
L11 41556U 16033A 18349.24284038 .00000653 00000-0 32179-4 0 9990
L22 41556 97.4159 64.5182 0002205 107.5253 326.5396 15.21381778141267

Live tracking and technical data element details for ZIYUAN 3-2 (ZY 3-2) (NORAD 41556). ZIYUAN 3-2 (ZY 3-2) can be tracked NOW for your location showing map with azimuth and elevation plus other details from your city location.

Track the satellite on the map from your city or location and see movement details for azimuth, elevation, latitude, longitude, range, height, and movement on the map or in text.







IsCatalogInMostPopularTable: catalog: 41556, numindb: 151
Update: records affected: 1



GetName: 41556 ZIYUAN 3-2 (ZY 3-2)

Hit Count: updated at: Sat, 15 Dec 2018 14:43:07 GMT